Regional Weather Roundup
Issued by NWS

Home | Current Version | Previous Version | Text Only | Print | Product List | Glossary Off
Versions: 1 2 3 4 5 6 7 8 9 10 11 12 13 14 15 16 17 18 19 20 21 22 23 24 25 26 27 28 29 30 31 32 33 34 35 36 37 38 39 40 41 42 43 44 45 46 47 48 49 50

000
ASUS45 KBOI 182010
RWRID
WEATHER ROUNDUP FOR IDAHO
NATIONAL WEATHER SERVICE BOISE ID
100 PM MST THU DEC 18 2014

NOTE: "FAIR" INDICATES FEW OR NO CLOUDS BELOW 12000 FEET
WITH NO SIGNIFICANT WEATHER AND/OR OBSTRUCTIONS TO VISIBILITY

IDZ012-014-182100-
SOUTHWEST IDAHO


CITY           SKY/WX    TMP DP  RH WIND       PRES   REMARKS
BOISE          CLOUDY    47  31  53 S12       30.10S
CALDWELL       CLOUDY    45  30  57 SE6       30.12F
MOUNTAIN HOME  PTSUNNY   45  30  57 E14       30.10F
$$

IDZ016-017-182100-
SOUTHCENTRAL IDAHO


CITY           SKY/WX    TMP DP  RH WIND       PRES   REMARKS
BURLEY         PTSUNNY   42  29  59 CALM      30.11F
JEROME         MOSUNNY   39  30  70 NE7       30.11F WCI  34
TWIN FALLS     MOSUNNY   46  31  55 NE6       30.11F
$$

IDZ019>023-182100-
SOUTHEAST IDAHO


CITY           SKY/WX    TMP DP  RH WIND       PRES   REMARKS
IDAHO FALLS    PTSUNNY   30  27  88 NW3       30.13F
POCATELLO      MOSUNNY   35  29  78 NW6       30.13F WCI  30
REXBURG        CLOUDY    33  27  78 CALM      30.11F
$$

IDZ006-010-011-018-031-032-182100-
CENTRAL IDAHO MOUNTAINS


CITY           SKY/WX    TMP DP  RH WIND       PRES   REMARKS
MCCALL         FLURRIES  33  31  92 SE8       30.03S WCI  26
HAILEY         PTSUNNY   32  25  74 CALM      30.11F
STANLEY          N/A     28  20  71 CALM      30.05F
SALMON         CLOUDY    27  18  69 NW3       30.09F
CHALLIS        CLOUDY    25  19  78 CALM      30.08F
$$

IDZ002-004-006-007-026-182100-
NORTHERN IDAHO


CITY           SKY/WX    TMP DP  RH WIND       PRES   REMARKS
LEWISTON       PTSUNNY   46  41  82 NE6       30.01F
LOWELL           N/A     40  37  89 CALM      30.09F
COEUR D`ALENE  CLOUDY    43  37  81 S8        29.97F
MULLAN PASS    SNOW      30  28  92 VRB7      29.93S VSB 1/4 WCI  23
$$


USA.gov is the U.S. government's official web portal to all federal, state and local government web resources and services.